This is the latest recevied weather packets stored in our database for station/object N1TKS. If no packets are shown the sender has not sent any weather packets the latest 10 day(s).
| Time | Temp. | Humidity | Pressure | Rain* | Wind** | Luminosity | Snow |
|---|---|---|---|---|---|---|---|
| 1778181413 | 17.22° C | 37% | 1008.3 hPa | 0 mm | - | - | - |
| 1778181113 | 17.22° C | 36% | 1008.4 hPa | 0 mm | - | - | - |
| 1778180814 | 16.67° C | 37% | 1008.5 hPa | 0 mm | - | - | - |
| 1778180546 | 16.67° C | 38% | 1008.5 hPa | 0 mm | - | - | - |
| 1778180514 | 16.67° C | 38% | 1008.5 hPa | 0 mm | - | - | - |
| 1778180354 | 16.67° C | 36% | 1008.7 hPa | 0 mm | - | - | - |
| 1778180213 | 16.67° C | 36% | 1008.6 hPa | 0 mm | - | - | - |
| 1778179367 | 16.67° C | 36% | 1008.7 hPa | 0 mm | - | - | - |
| 1778179313 | 16.67° C | 36% | 1008.7 hPa | 0 mm | - | - | - |
| 1778178115 | 16.67° C | 36% | 1009.1 hPa | 0 mm | - | - | - |
| 1778177817 | 16.67° C | 38% | 1009 hPa | 0 mm | - | - | - |
| 1778177513 | 16.67° C | 37% | 1009 hPa | 0 mm | - | - | - |
| 1778177215 | 16.67° C | 39% | 1009.1 hPa | 0 mm | - | - | - |
| 1778176915 | 16.11° C | 40% | 1009.2 hPa | 0 mm | - | - | - |
| 1778176616 | 16.11° C | 39% | 1009.2 hPa | 0 mm | - | - | - |
| 1778176499 | 16.11° C | 36% | 1009.6 hPa | 0 mm | - | - | - |
| 1778176068 | 16.11° C | 39% | 1009.3 hPa | 0 mm | - | - | - |
| 1778176013 | 16.11° C | 39% | 1009.3 hPa | 0 mm | - | - | - |
| 1778175418 | 16.11° C | 38% | 1009.5 hPa | 0 mm | - | - | - |
| 1778175114 | 16.11° C | 38% | 1009.6 hPa | 0 mm | - | - | - |
| 1778174813 | 16.11° C | 36% | 1009.6 hPa | 0 mm | - | - | - |
| 1778174584 | 17.22° C | 40% | 1009.9 hPa | 0 mm | - | - | - |
| 1778174575 | 17.22° C | 38% | 1010 hPa | 0 mm | - | - | - |
| 1778174216 | 16.11° C | 37% | 1009.6 hPa | 0 mm | - | - | - |
| 1778173913 | 16.11° C | 37% | 1009.8 hPa | 0 mm | - | - | - |
* Rain latest hour (hover to see other rain measurements)
** Current wind speed in m/s (hover to see current wind gust speed)